Location: Cedar Falls
(42.5280°N, 92.4450°W)
Time: 07:20:51
(UTC-06:00)

NOSS 3-1 (C) - Visible Passes

Search period start: 24 January 2017 00:00
Search period end: 03 February 2017 00:00
Orbit: 835 x 1374 km, 63.4° (Epoch: 22 January)

Date Brightness Start Highest point End Pass type
(mag) Time Alt. Az. Time Alt. Az. Time Alt. Az.
24 Jan 4.5 03:56:06 58° E 03:56:06 58° E 04:03:16 10° SE visible
24 Jan 4.6 05:43:33 30° W 05:45:49 35° WSW 05:53:10 10° S visible
24 Jan 3.2 19:31:46 10° SSW 19:37:28 67° ESE 19:37:28 67° ESE visible
24 Jan 5.9 21:23:44 10° W 21:24:57 15° W 21:24:57 15° W visible
25 Jan 5.5 03:13:07 29° E 03:13:07 29° E 03:17:18 10° ESE visible
25 Jan 4.1 05:00:35 53° WSW 05:00:42 53° WSW 05:08:46 10° S visible
25 Jan 3.8 18:47:08 10° S 18:52:26 40° ESE 18:54:34 30° ENE visible
25 Jan 4.7 20:37:40 10° WSW 20:42:02 37° WNW 20:42:02 37° WNW visible
26 Jan 6.4 02:30:14 12° E 02:30:14 12° E 02:30:57 10° E visible
26 Jan 4.5 04:17:43 52° SSE 04:17:43 52° SSE 04:23:51 10° SSE visible
26 Jan 5.3 06:05:12 17° WSW 06:05:34 17° WSW 06:10:31 10° SW visible
26 Jan 4.5 18:03:07 10° SSE 18:07:33 23° ESE 18:11:36 12° ENE visible
26 Jan 3.7 19:51:57 10° SW 19:57:44 61° NW 19:59:04 50° N visible
26 Jan 6.1 21:45:51 10° WNW 21:46:31 12° WNW 21:46:31 12° WNW visible
27 Jan 5.5 03:34:56 28° SE 03:34:56 28° SE 03:38:29 10° SE visible
27 Jan 5.1 05:22:25 26° SW 05:22:25 26° SW 05:27:24 10° SSW visible
27 Jan 3.3 19:06:37 10° SSW 19:12:25 86° SE 19:16:00 28° NE visible
27 Jan 5.3 20:59:18 10° W 21:03:27 24° NW 21:03:27 24° NW visible
28 Jan 6.4 02:52:12 12° ESE 02:52:12 12° ESE 02:52:43 10° ESE visible
28 Jan 5.3 04:39:41 26° SSW 04:39:41 26° SSW 04:43:21 10° S visible
28 Jan 3.6 18:21:43 10° SSW 18:27:17 53° ESE 18:32:51 13° NE visible
28 Jan 4.8 20:13:04 10° WSW 20:18:25 33° NW 20:20:18 28° N visible
29 Jan 5.9 03:57:00 17° SSE 03:57:00 17° SSE 03:58:42 10° SSE visible
29 Jan 4.2 19:27:09 10° WSW 19:32:49 48° NW 19:37:04 20° NNE visible
29 Jan 5.8 21:21:37 10° WNW 21:24:30 16° NNW 21:24:30 16° NNW visible
30 Jan 3.6 18:41:36 10° SW 18:47:24 75° NW 18:53:44 11° NNE visible
30 Jan 5.5 20:34:57 10° WNW 20:39:32 21° NNW 20:41:11 19° N visible
31 Jan 3.4 17:56:27 10° SSW 18:02:10 70° ESE 18:08:35 10° NE visible
31 Jan 5.1 19:48:32 10° W 19:53:40 28° NW 19:57:46 16° NNE visible
31 Jan 6.2 21:44:08 10° NW 21:45:12 12° NNW 21:45:12 12° NNW visible
01 Feb 4.6 19:02:26 10° WSW 19:07:58 39° NW 19:14:09 10° NNE visible
01 Feb 5.8 20:57:25 10° NW 21:01:00 15° NNW 21:01:43 15° N visible
02 Feb 4.0 18:16:42 10° SW 18:22:27 59° NW 18:28:57 10° NNE visible
02 Feb 5.6 20:10:41 10° WNW 20:14:55 18° NNW 20:18:11 13° N visible
